TimePDT,TemperatureF,Dew PointF,Humidity,Sea Level PressureIn,VisibilityMPH,Wind Direction,Wind SpeedMPH,Gust SpeedMPH,PrecipitationIn,Events,Conditions,WindDirDegrees,DateUTC
12:54 AM,45.0,43.0,93,29.85,6.0,Calm,Calm,-,N/A,,Overcast,0,2012-10-12 07:54:00
1:13 AM,46.4,44.6,93,29.84,6.0,SSW,5.8,-,N/A,,Overcast,210,2012-10-12 08:13:00
1:37 AM,48.2,46.4,93,29.85,9.0,SSW,3.5,-,N/A,,Overcast,200,2012-10-12 08:37:00
1:54 AM,48.9,46.0,90,29.86,9.0,SSW,5.8,-,N/A,,Overcast,210,2012-10-12 08:54:00
2:54 AM,48.9,46.9,93,29.86,10.0,South,4.6,-,N/A,,Overcast,180,2012-10-12 09:54:00
3:54 AM,50.0,46.0,86,29.86,10.0,South,5.8,-,N/A,,Overcast,190,2012-10-12 10:54:00
4:54 AM,50.0,46.9,89,29.88,10.0,South,6.9,-,N/A,,Overcast,190,2012-10-12 11:54:00
5:32 AM,50.0,46.4,87,29.87,10.0,SSW,4.6,-,N/A,,Mostly Cloudy,200,2012-10-12 12:32:00
5:54 AM,48.9,46.9,93,29.87,9.0,SSW,3.5,-,0.00,,Mostly Cloudy,200,2012-10-12 12:54:00
6:54 AM,48.9,48.0,97,29.88,7.0,SSW,5.8,-,0.00,Rain,Light Rain,210,2012-10-12 13:54:00
7:28 AM,50.0,48.2,94,29.88,9.0,SW,6.9,-,N/A,,Overcast,220,2012-10-12 14:28:00
7:38 AM,50.0,48.2,94,29.88,8.0,SW,8.1,-,N/A,,Overcast,220,2012-10-12 14:38:00
7:54 AM,50.0,48.0,93,29.89,6.0,SW,6.9,-,N/A,,Overcast,220,2012-10-12 14:54:00
8:49 AM,51.8,48.2,88,29.90,8.0,SW,5.8,-,N/A,,Overcast,220,2012-10-12 15:49:00
8:54 AM,51.8,48.2,88,29.90,9.0,SW,3.5,-,N/A,,Overcast,220,2012-10-12 15:54:00
9:10 AM,51.8,48.2,88,29.91,9.0,SW,4.6,-,N/A,,Overcast,220,2012-10-12 16:10:00
9:39 AM,51.8,48.2,88,29.91,10.0,SW,6.9,-,N/A,,Overcast,220,2012-10-12 16:39:00
9:54 AM,53.1,48.9,86,29.92,9.0,SSW,10.4,-,N/A,,Overcast,200,2012-10-12 16:54:00
10:13 AM,53.6,48.2,82,29.92,8.0,SSW,12.7,17.3,N/A,,Overcast,200,2012-10-12 17:13:00
10:54 AM,52.0,50.0,93,29.93,4.0,SSW,9.2,-,0.00,,Overcast,200,2012-10-12 17:54:00
11:54 AM,52.0,50.0,93,29.94,3.0,SSW,8.1,-,0.02,Rain,Light Rain,210,2012-10-12 18:54:00
12:54 PM,53.1,51.1,93,29.94,3.0,SSW,11.5,-,0.07,Rain,Light Rain,200,2012-10-12 19:54:00
1:49 PM,53.6,51.8,94,29.92,10.0,South,15.0,-,0.00,,Overcast,180,2012-10-12 20:49:00
1:54 PM,54.0,52.0,93,29.93,10.0,SSW,13.8,-,0.00,,Overcast,200,2012-10-12 20:54:00
2:19 PM,53.6,51.8,94,29.93,10.0,SSW,12.7,23.0,N/A,,Overcast,210,2012-10-12 21:19:00
2:54 PM,54.0,51.1,90,29.93,10.0,SSW,12.7,-,N/A,,Overcast,210,2012-10-12 21:54:00
3:14 PM,53.6,51.8,94,29.93,7.0,South,11.5,21.9,N/A,,Overcast,190,2012-10-12 22:14:00
3:54 PM,54.0,51.1,90,29.93,10.0,SSW,13.8,20.7,N/A,,Overcast,210,2012-10-12 22:54:00
4:14 PM,53.6,51.8,94,29.92,10.0,SSW,13.8,-,N/A,,Overcast,200,2012-10-12 23:14:00
4:32 PM,55.4,51.8,88,29.92,10.0,SSW,12.7,20.7,N/A,,Overcast,200,2012-10-12 23:32:00
4:43 PM,53.6,50.0,88,29.93,10.0,SSW,12.7,-,N/A,,Overcast,210,2012-10-12 23:43:00
4:54 PM,54.0,50.0,86,29.94,10.0,SSW,12.7,19.6,N/A,,Overcast,210,2012-10-12 23:54:00
5:54 PM,54.0,48.9,83,29.93,10.0,SSW,12.7,25.3,N/A,,Overcast,200,2012-10-13 00:54:00
6:54 PM,53.6,48.2,82,29.94,10.0,SSW,13.8,21.9,N/A,,Overcast,200,2012-10-13 01:54:00
7:43 PM,53.6,48.2,82,29.95,10.0,SSW,13.8,-,N/A,,Overcast,200,2012-10-13 02:43:00
7:54 PM,54.0,48.9,83,29.95,10.0,South,16.1,24.2,N/A,,Overcast,190,2012-10-13 02:54:00
8:14 PM,53.6,48.2,82,29.96,10.0,SSW,16.1,21.9,N/A,,Overcast,200,2012-10-13 03:14:00
8:54 PM,54.0,48.9,83,29.97,10.0,SSW,16.1,20.7,0.00,,Overcast,200,2012-10-13 03:54:00
9:54 PM,54.0,48.9,83,29.99,10.0,SSW,12.7,-,N/A,,Overcast,210,2012-10-13 04:54:00
10:54 PM,53.1,50.0,89,30.02,10.0,SSW,11.5,-,N/A,,Overcast,210,2012-10-13 05:54:00
11:54 PM,54.0,50.0,86,30.03,10.0,SSW,11.5,-,N/A,,Overcast,210,2012-10-13 06:54:00